Location: Hopewell Observatory
(38.8698°N, 77.6988°W)
Time: 18:29:34
(UTC-04:00)

Cosmos 1634 Rocket - Pass Details

Date: 26 May 2018
Orbit: 960 x 992 km, 82.9° (Epoch: 17 October)

Event Time Altitude Azimuth Distance (km) Brightness Sun altitude
Exits shadow 22:59:16 46° 150° (SSE) 1,315 4.2 -22.7°
Maximum altitude 23:01:02 63° 93° (E) 1,100 4.0 -22.9°
Drops below altitude 10° 23:07:16 10° 14° (NNE) 2,761 6.9 -23.5°
Sets 23:09:49 0° 11° (N) 3,712 7.8 -23.8°
